Regional Weather Roundup
Issued by NWS

Home | Current Version | Previous Version | Text Only | Print | Product List | Glossary On
Versions: 1 2 3 4 5 6 7 8 9 10 11 12 13 14 15 16 17 18 19 20 21 22 23 24 25 26 27 28
000
ASUS45 KBOI 232210
RWRID

IDAHO REGIONAL WEATHER ROUNDUP
NATIONAL WEATHER SERVICE BOISE ID
400 PM MDT TUE AUG 23 2016

NOTE: "FAIR" INDICATES FEW OR NO CLOUDS BELOW 12000 FEET
WITH NO SIGNIFICANT WEATHER AND/OR OBSTRUCTIONS TO VISIBILITY

IDZ012-014-232300-
SOUTHWEST IDAHO


CITY           SKY/WX    TMP DP  RH WIND       PRES   REMARKS
BOISE          SUNNY     79  27  14 NW13      30.08F
CALDWELL       SUNNY     79  32  18 W10       30.08F
MOUNTAIN HOME  SUNNY     81  19  10 NW17G25   30.06F
$$

IDZ016-017-232300-
SOUTHCENTRAL IDAHO


CITY           SKY/WX    TMP DP  RH WIND       PRES   REMARKS
BURLEY         SUNNY     76  30  18 W14G24    30.09F
JEROME         SUNNY     77  25  14 W15G24    30.11F
TWIN FALLS     SUNNY     78  21  12 W13       30.11F
$$

IDZ019>023-232300-
SOUTHEAST IDAHO


CITY           SKY/WX    TMP DP  RH WIND       PRES   REMARKS
IDAHO FALLS    SUNNY     80  19  10 SW24G30   30.07F
POCATELLO      SUNNY     79  22  12 SW21G28   30.10F
REXBURG        SUNNY     79  12   8 SW15G25   30.08F
$$

IDZ006-010-011-018-031-032-232300-
CENTRAL IDAHO MOUNTAINS


CITY           SKY/WX    TMP DP  RH WIND       PRES   REMARKS
MCCALL         SUNNY     72  25  17 W14       30.16F
HAILEY         SUNNY     75  21  13 S17G26    30.10S
STANLEY          N/A     71   6   8 N9        30.18F
SALMON         SUNNY     75  27  16 N9G17     30.08F
CHALLIS        SUNNY     76  14   9 SE3       30.07F
$$

IDZ002-004-006-007-026-232300-
NORTHERN IDAHO


CITY           SKY/WX    TMP DP  RH WIND       PRES   REMARKS
LEWISTON       SUNNY     80  39  23 W6        30.10F
LOWELL           N/A     86  37  17 N3        30.08F
COEUR D`ALENE  SUNNY     75  41  29 SW5       30.10F
MULLAN PASS    SUNNY     60  34  37 VRB6      30.25S
$$




USA.gov is the U.S. government's official web portal to all federal, state and local government web resources and services.